Location: Silent Lake
(44.9206°N, 78.0708°W)
Time: 10:24:16
(UTC-04:00)

COSMOS 2428 - Pass Details

Date: 19 April 2018
Orbit: 843 x 858 km, 71.0° (Epoch: 20 September)

Event Time Altitude Azimuth Distance (km) Brightness Sun altitude
Rises 20:23:18 0° 183° (S) 3,413 5.7 -4.3°
Reaches altitude 10° 20:25:51 10° 177° (S) 2,480 4.9 -4.7°
Maximum altitude 20:31:12 43° 107° (ESE) 1,178 3.1 -5.6°
Drops below altitude 10° 20:36:34 10° 38° (NE) 2,487 5.0 -6.4°
Sets 20:39:07 0° 32° (NNE) 3,425 5.8 -6.9°
